Flag for Kazakhstan Weather past 2 weeks in Qyzylorda, Kazakhstan

Now
27 °F

Clear.


Feels Like: 20 °F
Forecast: 28 / 44 °F
Wind: 6 mph from Northeast

Location: Kzyl-Orda

Current Time: Feb 28, 2015 at 3:18:49 AM

Latest Report: Feb 28, 2015 at 3:00 AM


Visibility: 10 mi

Pressure: 30.54 "Hg

Humidity: 74%

Dew point: 19 °F

Location of QyzylordaLocation

Historic Weather in Qyzylorda — Graph

°F

Qyzylorda temperature yesterday

Maximum temperature yesterday: 43 °F (at 4:00 PM)
Minimum temperature yesterday: 25 °F (at 7:30 AM)
Average temperature yesterday: 34 °F

Past Weeks' High & Low Weather Summary

 TemperatureHumidityPressure
High54 °F (Feb 20, 3:30 PM)100% (Feb 13, 3:00 AM)30.60 "Hg (Feb 13, 3:00 AM)
Low19 °F (Feb 13, 8:30 AM)31% (Feb 22, 4:30 PM)30.04 "Hg (Feb 15, 4:00 PM)
Average33 °F75%30.22 "Hg
* Reported Feb 13 2:00 AM — Feb 28 2:00 AM, Qyzylorda, Weather by CustomWeather, © 2015

Note: Actual official high and low records may vary slightly from our data, if they occured in-between our weather recording intervals... More about our weather records

Advertising

Qyzylorda weather history for previous 24 hours

 ConditionsComfort  
Time TempWeatherWind HumidityBarometerVisibility
2:00 AM
Sat, Feb 28
30 °FClear.13 mph69%30.54 "Hg10 mi
1:00 AM30 °FClear.13 mph69%30.57 "Hg10 mi
12:00 AM28 °FClear.10 mph74%30.57 "Hg10 mi
11:00 PM
Fri, Feb 27
30 °FClear.8 mph69%30.57 "Hg10 mi
10:00 PM32 °FClear.6 mph64%30.57 "Hg10 mi
9:00 PM34 °FClear.8 mph60%30.57 "Hg10 mi
8:00 PM37 °FSunny.6 mph52%30.57 "Hg10 mi
7:30 PM37 °FSunny.8 mph52%30.57 "Hg10 mi
7:00 PM41 °FSunny.13 mph45%30.57 "Hg10 mi
6:30 PM41 °FSunny.15 mph42%30.57 "Hg10 mi
6:00 PM41 °FSunny.15 mph39%30.54 "Hg10 mi
5:30 PM43 °FPassing clouds.15 mph34%30.54 "HgN/A
5:00 PM43 °FSunny.17 mph34%30.57 "Hg10 mi
4:30 PM43 °FSunny.15 mph34%30.57 "Hg10 mi
4:00 PM43 °FSunny.17 mph39%30.57 "Hg10 mi
3:30 PM41 °FSunny.15 mph42%30.57 "Hg10 mi
3:00 PM41 °FSunny.15 mph42%30.57 "Hg10 mi
2:30 PM41 °FSunny.15 mph45%30.57 "Hg10 mi
2:00 PM37 °FPassing clouds.15 mph52%30.57 "HgN/A
1:30 PM37 °FSunny.15 mph52%30.57 "Hg10 mi
1:00 PM36 °FSunny.17 mph60%30.60 "Hg10 mi
12:30 PM36 °FSunny.15 mph60%30.60 "Hg10 mi
12:00 PM34 °FSunny.17 mph65%30.60 "Hg10 mi
11:30 AM32 °FSunny.15 mph69%30.60 "Hg10 mi
11:00 AM30 °FSunny.15 mph75%30.60 "Hg10 mi
10:30 AM28 °FSunny.15 mph80%30.57 "Hg10 mi
9:30 AM27 °FSunny.13 mph80%30.57 "Hg10 mi
9:00 AM25 °FClear.13 mph86%30.57 "Hg10 mi
8:30 AM25 °FClear.13 mph86%30.57 "Hg10 mi
8:00 AM25 °FClear.10 mph86%30.54 "Hg10 mi
7:30 AM25 °FClear.13 mph86%30.54 "Hg10 mi
7:00 AM27 °FClear.10 mph80%30.54 "Hg10 mi
6:00 AM27 °FPassing clouds.13 mph86%30.54 "HgN/A
5:00 AM27 °FClear.10 mph86%30.54 "Hg10 mi
4:00 AM28 °FClear.13 mph80%30.54 "Hg10 mi
3:00 AM28 °FClear.13 mph80%30.54 "Hg10 mi
Weather by CustomWeather, © 2015

See weather overviewHow to use our weather pages